Regional Weather Roundup
Issued by NWS

Home | Current Version | Previous Version | Graphics & Text | Print | Product List | Glossary On
Versions: 1 2 3 4 5 6 7 8 9 10 11 12 13 14 15 16 17 18 19 20 21 22 23 24 25 26 27 28 29 30 31 32 33 34 35 36 37 38 39 40 41 42 43 44 45 46 47 48 49 50
865
ASUS43 KOAX 252302
RWRNE

WEATHER ROUNDUP FOR NEBRASKA
NATIONAL WEATHER SERVICE OMAHA NE
600 PM CDT MON JUL 25 2016

NOTES: SATELLITE DATA IS BEING USED TO AUGMENT CLOUD COVER ABOVE
       12000 FEET.
       "FAIR" INDICATES FEW OR NO CLOUDS BELOW 12,000 FEET WITH NO
       SIGNIFICANT WEATHER AND/OR OBSTRUCTIONS TO VISIBILITY.

  * THESE STATIONS DO NOT REPORT WEATHER SUCH AS RAIN...SNOW OR FOG.

NEZ001>004-019>022-054>056-260000-
NEBRASKA PANHANDLE

CITY           SKY/WX    TMP DP  RH WIND       PRES   REMARKS
SCOTTSBLUFF    SUNNY     91  53  27 S13       30.03F
ALLIANCE       SUNNY     87  60  40 S20G29    30.08S
CHADRON        SUNNY     94  55  26 S15G26    29.99F HX  92
KIMBALL        SUNNY     87  59  38 S16G23    30.13S
SIDNEY         SUNNY     88  59  37 S21G35    30.12F
$$

NEZ057>060-069>072-079>082-260000-
SOUTHWEST NEBRASKA

CITY           SKY/WX    TMP DP  RH WIND       PRES   REMARKS
NORTH PLATTE   SUNNY     85  66  53 SE9G20    30.07F
IMPERIAL       SUNNY     88  59  37 S15       30.07F
LEXINGTON      SUNNY     85  67  54 SE10      30.06F
MCCOOK         MOSUNNY   89  63  41 SE14      30.05F HX  90
$$

NEZ005>010-023>029-035>040-094-260000-
NORTH CENTRAL NEBRASKA

CITY           SKY/WX    TMP DP  RH WIND       PRES   REMARKS
VALENTINE      SUNNY     89  57  33 S12G24    30.05F
AINSWORTH      SUNNY     86  57  36 S13G21    30.07F
BROKEN BOW     SUNNY     84  65  52 SE12      30.08F
O`NEILL        SUNNY     89  49  25 S10       30.07F
ORD            SUNNY     87  57  35 SE9       30.05F
THEDFORD       SUNNY     87  62  42 S16       30.09F
$$

NEZ041-046>049-061>064-073>077-083>087-260000-
SOUTH CENTRAL NEBRASKA

CITY           SKY/WX    TMP DP  RH WIND       PRES   REMARKS
GRAND ISLAND   SUNNY     85  62  46 SE7       30.07F
AURORA         SUNNY     84  64  51 E5        30.07S
HASTINGS       SUNNY     87  49  26 SE8       30.06F
HEBRON         SUNNY     87  60  40 NE6       30.04F
HOLDREGE       SUNNY     84  64  50 SE7       30.06F
KEARNEY *      MOSUNNY   86  64  48 SE9       30.07F
$$

NEZ011>018-030>034-042>045-260000-
NORTHEAST NEBRASKA

CITY           SKY/WX    TMP DP  RH WIND       PRES   REMARKS
NORFOLK        SUNNY     85  58  39 VRB6      30.06F
ALBION         SUNNY     83  63  49 SE7       30.07F
BLAIR          SUNNY     85  66  53 E6        30.06S
FREMONT        SUNNY     85  59  40 NE7       30.05F
TEKAMAH        SUNNY     87  63  44 VRB3      30.04F
WAYNE          SUNNY     83  68  59 S5        30.07F
$$

NEZ050>053-065>068-078-088>093-260000-
SOUTHEAST NEBRASKA

CITY           SKY/WX    TMP DP  RH WIND       PRES   REMARKS
LINCOLN        SUNNY     87  63  44 NE8       30.05F
OMAHA EPPLEY   MOSUNNY   88  65  46 NE7       30.04F HX  90
BEATRICE       SUNNY     87  59  38 E8        30.04F
FALLS CITY     SUNNY     85  69  58 N8        30.03S
NEBRASKA CITY  SUNNY     83  64  54 NE10      30.04F
PLATTSMOUTH    SUNNY     84  67  55 NE7       30.04F
$$

NEZ044-045-051>053-067-260000-
OMAHA AREA

CITY           SKY/WX    TMP DP  RH WIND       PRES   REMARKS
OMAHA EPPLEY   MOSUNNY   88  65  46 NE7       30.04F HX  90
BLAIR          SUNNY     85  66  53 E6        30.06S
FREMONT        SUNNY     85  59  40 NE7       30.05F
MILLARD        SUNNY     87  59  38 NE3       30.04F
OFFUTT AFB     SUNNY     87  65  49 E8        30.04F
PLATTSMOUTH    SUNNY     84  67  55 NE7       30.04F
WAHOO          FAIR      85  65  52 NE6       30.05F
$$




USA.gov is the U.S. government's official web portal to all federal, state and local government web resources and services.